[Date Prev][Date Next][Thread Prev][Thread Next] - [Date Index][Thread Index][Author Index]
2 Line ISS Keps 11-20
- Subject: [sarex] 2 Line ISS Keps 11-20
- From: "Dave Larsen Ph.D." <doc@xxxxxxxxxxx>
- Date: Wed, 20 Nov 2002 02:18:16 -0800
ISS
1 25544U 98067A 02324.19285509 .00031364 00000-0 39417-3 0 3976
2 25544 51.6372 349.6824 0013380 156.9513 331.2220 15.59298436228307
----
Via the sarex mailing list at AMSAT.ORG courtesy of AMSAT-NA.
To unsubscribe, send "unsubscribe sarex" to Majordomo@amsat.org
AMSAT Home